When you browse on this site, cookies collect data to enhance your experience and personalize the content and advertising you see.
Visit our Privacy Policy to learn more. By continuing to use the site, you agree to this use of cookies and data.
  • In Hungary
  • List of Countries
  • For 7 days
  • Water Temperature
  • Weather Map
  • News
  • Weather Widgets
  • user-avatar
    Login

    Hourly Weather Kuntaur

    Today, 25 May, Monday

    Time Temperature Precipitation Wind Pressure Humidity
    00:00 +28°C° 0 mm 5 mps 758 mmHg 58%
    01:00 +27°C° 0 mm 4 mps 758 mmHg 63%
    02:00 +26°C° 0 mm 3 mps 757 mmHg 68%
    03:00 +25°C° 0 mm 3 mps 757 mmHg 72%
    04:00 +25°C° 0 mm 2 mps 758 mmHg 75%
    05:00 +24°C° 0 mm 2 mps 758 mmHg 82%
    06:00 +26°C° 0 mm 2 mps 758 mmHg 71%
    07:00 +27°C° 0 mm 3 mps 758 mmHg 61%
    08:00 +29°C° 0 mm 3 mps 759 mmHg 50%
    09:00 +33°C° 0 mm 3 mps 758 mmHg 42%
    10:00 +37°C° 0 mm 3 mps 758 mmHg 33%
    11:00 +40°C° 0 mm 2 mps 758 mmHg 25%
    12:00 +42°C° 0 mm 3 mps 757 mmHg 20%
    13:00 +44°C° 0 mm 3 mps 756 mmHg 15%
    14:00 +46°C° 0 mm 3 mps 755 mmHg 10%
    15:00 +46°C° 0 mm 3 mps 754 mmHg 9%
    16:00 +46°C° 0 mm 2 mps 754 mmHg 8%
    17:00 +46°C° 0 mm 2 mps 754 mmHg 7%
    18:00 +42°C° 0 mm 2 mps 754 mmHg 9%
    19:00 +39°C° 0 mm 2 mps 755 mmHg 10%
    20:00 +36°C° 0 mm 1 mps 756 mmHg 12%
    21:00 +34°C° 0 mm 2 mps 756 mmHg 24%
    22:00 +31°C° 0 mm 3 mps 757 mmHg 37%
    23:00 +28°C° 0 mm 4 mps 758 mmHg 49%

    Tomorrow, 26 May, Tuesday

    Time Temperature Precipitation Wind Pressure Humidity
    00:00 +27°C° 0 mm 4 mps 757 mmHg 53%
    01:00 +26°C° 0 mm 4 mps 757 mmHg 57%
    02:00 +25°C° 0 mm 4 mps 757 mmHg 61%
    03:00 +23°C° 0 mm 4 mps 757 mmHg 64%
    04:00 +24°C° 0 mm 3 mps 757 mmHg 66%
    05:00 +23°C° 0 mm 2 mps 757 mmHg 68%
    06:00 +25°C° 0 mm 2 mps 757 mmHg 60%
    07:00 +27°C° 0 mm 2 mps 758 mmHg 52%
    08:00 +29°C° 0 mm 2 mps 758 mmHg 44%
    09:00 +34°C° 0 mm 2 mps 758 mmHg 34%
    10:00 +37°C° 0 mm 1 mps 757 mmHg 24%
    11:00 +42°C° 0 mm 1 mps 757 mmHg 15%
    12:00 +44°C° 0 mm 1 mps 756 mmHg 12%
    13:00 +42°C° 0 mm 0 mps 755 mmHg 10%
    14:00 +44°C° 0 mm 0 mps 754 mmHg 8%
    15:00 +43°C° 0 mm 0 mps 754 mmHg 7%
    16:00 +42°C° 0 mm 0 mps 754 mmHg 7%
    17:00 +42°C° 0 mm 0 mps 753 mmHg 6%
    18:00 +42°C° 0 mm 2 mps 754 mmHg 10%
    19:00 +39°C° 0 mm 3 mps 755 mmHg 13%
    20:00 +36°C° 0 mm 4 mps 756 mmHg 17%
    21:00 +33°C° 0 mm 4 mps 756 mmHg 32%
    22:00 +30°C° 0 mm 4 mps 757 mmHg 47%
    23:00 +27°C° 0 mm 5 mps 757 mmHg 62%

    Day after tomorrow, 27 May, Wednesday

    Time Temperature Precipitation Wind Pressure Humidity
    00:00 +26°C° 0 mm 4 mps 757 mmHg 66%
    01:00 +25°C° 0 mm 4 mps 757 mmHg 71%
    02:00 +25°C° 0 mm 3 mps 757 mmHg 75%
    03:00 +24°C° 0 mm 3 mps 757 mmHg 78%
    04:00 +24°C° 0 mm 3 mps 757 mmHg 82%
    05:00 +22°C° 0 mm 3 mps 757 mmHg 85%
    06:00 +25°C° 0 mm 3 mps 757 mmHg 75%
    07:00 +27°C° 0 mm 3 mps 758 mmHg 65%
    08:00 +29°C° 0 mm 3 mps 758 mmHg 55%
    09:00 +34°C° 0 mm 2 mps 757 mmHg 42%
    10:00 +37°C° 0 mm 1 mps 757 mmHg 30%
    11:00 +42°C° 0 mm 1 mps 757 mmHg 17%
    12:00 +43°C° 0 mm 1 mps 756 mmHg 15%
    13:00 +45°C° 0 mm 1 mps 755 mmHg 13%
    14:00 +46°C° 0 mm 1 mps 754 mmHg 10%
    15:00 +46°C° 0 mm 1 mps 754 mmHg 10%
    16:00 +45°C° 0 mm 1 mps 754 mmHg 10%
    17:00 +45°C° 0 mm 1 mps 753 mmHg 10%
    18:00 +42°C° 0 mm 2 mps 754 mmHg 14%
    19:00 +39°C° 0 mm 3 mps 755 mmHg 19%
    20:00 +36°C° 0 mm 4 mps 756 mmHg 24%
    21:00 +34°C° 0 mm 5 mps 757 mmHg 34%
    22:00 +32°C° 0 mm 5 mps 757 mmHg 44%
    23:00 +29°C° 0 mm 5 mps 757 mmHg 54%

    28 May, Thursday

    Time Temperature Precipitation Wind Pressure Humidity
    00:00 +28°C° 0 mm 4 mps 757 mmHg 58%
    01:00 +27°C° 0 mm 4 mps 757 mmHg 62%
    02:00 +26°C° 0 mm 3 mps 757 mmHg 66%
    03:00 +26°C° 0 mm 3 mps 757 mmHg 70%
    04:00 +25°C° 0 mm 2 mps 757 mmHg 74%
    05:00 +25°C° 0 mm 2 mps 757 mmHg 78%
    06:00 +26°C° 0 mm 2 mps 757 mmHg 70%
    07:00 +28°C° 0 mm 3 mps 758 mmHg 62%
    08:00 +30°C° 0 mm 3 mps 758 mmHg 55%
    09:00 +34°C° 0 mm 3 mps 758 mmHg 45%
    10:00 +37°C° 0 mm 3 mps 758 mmHg 35%
    11:00 +39°C° 0 mm 3 mps 757 mmHg 25%
    12:00 +42°C° 0 mm 3 mps 757 mmHg 22%
    13:00 +43°C° 0 mm 2 mps 756 mmHg 19%
    14:00 +46°C° 0 mm 2 mps 755 mmHg 16%
    15:00 +44°C° 0 mm 1 mps 754 mmHg 16%
    16:00 +44°C° 0 mm 1 mps 754 mmHg 16%
    17:00 +44°C° 0 mm 1 mps 754 mmHg 16%
    18:00 +41°C° 0 mm 2 mps 755 mmHg 20%
    19:00 +38°C° 0 mm 4 mps 755 mmHg 25%
    20:00 +36°C° 0 mm 6 mps 756 mmHg 30%
    21:00 +34°C° 0 mm 5 mps 757 mmHg 35%
    22:00 +32°C° 0 mm 5 mps 757 mmHg 41%
    23:00 +29°C° 0 mm 4 mps 758 mmHg 47%

    29 May, Friday

    Time Temperature Precipitation Wind Pressure Humidity
    00:00 +28°C° 0 mm 3 mps 757 mmHg 52%
    01:00 +28°C° 0 mm 3 mps 757 mmHg 57%
    02:00 +27°C° 0 mm 2 mps 757 mmHg 63%
    03:00 +26°C° 0 mm 2 mps 757 mmHg 66%
    04:00 +26°C° 0 mm 1 mps 757 mmHg 70%
    05:00 +25°C° 0 mm 1 mps 757 mmHg 73%
    06:00 +26°C° 0 mm 2 mps 757 mmHg 70%
    07:00 +27°C° 0 mm 2 mps 758 mmHg 67%
    08:00 +28°C° 0 mm 3 mps 758 mmHg 64%
    09:00 +30°C° 0 mm 3 mps 758 mmHg 55%
    10:00 +33°C° 0 mm 3 mps 758 mmHg 45%
    11:00 +36°C° 0 mm 4 mps 758 mmHg 35%
    12:00 +37°C° 0 mm 3 mps 757 mmHg 32%
    13:00 +38°C° 0 mm 3 mps 756 mmHg 29%
    14:00 +39°C° 0 mm 3 mps 755 mmHg 26%
    15:00 +40°C° 0 mm 3 mps 755 mmHg 25%
    16:00 +40°C° 0 mm 3 mps 754 mmHg 25%
    17:00 +42°C° 0 mm 3 mps 754 mmHg 24%
    18:00 +39°C° 0.5 mm 3 mps 755 mmHg 28%
    19:00 +37°C° 0.5 mm 3 mps 755 mmHg 32%
    20:00 +35°C° 0.5 mm 3 mps 756 mmHg 37%
    21:00 +33°C° 0 mm 3 mps 756 mmHg 39%
    22:00 +31°C° 0 mm 3 mps 756 mmHg 42%
    23:00 +30°C° 0 mm 3 mps 757 mmHg 45%

    30 May, Saturday

    Time Temperature Precipitation Wind Pressure Humidity
    00:00 +29°C° 0 mm 3 mps 756 mmHg 47%
    01:00 +28°C° 0 mm 3 mps 756 mmHg 50%
    02:00 +28°C° 0 mm 2 mps 756 mmHg 53%
    03:00 +27°C° 0.1 mm 2 mps 756 mmHg 55%
    04:00 +27°C° 0.1 mm 2 mps 756 mmHg 58%
    05:00 +26°C° 0.1 mm 2 mps 756 mmHg 60%
    06:00 +28°C° 0.1 mm 2 mps 756 mmHg 54%
    07:00 +30°C° 0.1 mm 3 mps 757 mmHg 49%
    08:00 +31°C° 0.1 mm 3 mps 757 mmHg 43%
    09:00 +35°C° 0 mm 3 mps 757 mmHg 37%
    10:00 +38°C° 0 mm 3 mps 756 mmHg 32%
    11:00 +40°C° 0 mm 3 mps 756 mmHg 26%
    12:00 +42°C° 0 mm 3 mps 755 mmHg 24%
    13:00 +44°C° 0 mm 3 mps 755 mmHg 23%
    14:00 +45°C° 0 mm 3 mps 754 mmHg 21%
    15:00 +44°C° 0 mm 3 mps 754 mmHg 21%
    16:00 +44°C° 0 mm 3 mps 753 mmHg 21%
    17:00 +44°C° 0 mm 3 mps 753 mmHg 22%
    18:00 +41°C° 0.2 mm 4 mps 754 mmHg 24%
    19:00 +39°C° 0.2 mm 5 mps 755 mmHg 27%
    20:00 +35°C° 0.2 mm 6 mps 755 mmHg 30%
    21:00 +35°C° 0.1 mm 5 mps 756 mmHg 32%
    22:00 +34°C° 0.1 mm 5 mps 757 mmHg 35%
    23:00 +33°C° 0.1 mm 4 mps 758 mmHg 37%
    Show more